This demonstration page uses our WeatherBlox Daily Observations layout. Learn more.

Left ArrowRight Arrow

Hourly Observations for December 7, 2016

Temp ( °F °C ) Dew Point ( °F °C ) Humidity (%) Winds ( mph kmh ) Pressure ( in mb ) Visibility ( mi km ) Precip ( " mm )
12:51 am 00:51 Clear 40 4.4 27 -2.8 60 60 ESE 6 9 29.89 1012 10 16 N/A
1:51 am 01:51 Clear 42 5.6 28 -2.2 58 58 E 6 9 29.89 1012 10 16 N/A
2:51 am 02:51 Clear 43 6.1 29 -1.7 58 58 ESE 8 13 29.89 1012 10 16 N/A
3:51 am 03:51 Clear 40 4.4 29 -1.7 65 65 SSE 5 7 29.90 1012 10 16 N/A
4:51 am 04:51 Clear 35 1.7 27 -2.8 72 72 N N/A 29.91 1013 10 16 N/A
5:51 am 05:51 Clear 34 1.1 27 -2.8 76 76 N N/A 29.96 1014 10 16 N/A
6:51 am 06:51 Clear 35 1.7 28 -2.2 76 76 N 3 6 29.99 1016 10 16 N/A
7:51 am 07:51 Sunny 37 2.8 29 -1.7 73 73 N N/A 30.01 1016 10 16 N/A
8:51 am 08:51 Sunny 46 7.8 31 -0.6 56 56 N N/A 30.01 1016 10 16 N/A
9:51 am 09:51 Sunny 51 10.6 32 undefined 48 48 SSW 3 6 30.02 1017 10 16 N/A
10:51 am 10:51 Sunny 54 12.2 35 1.7 49 49 N N/A 30.01 1016 10 16 N/A
11:51 am 11:51 Sunny 59 15 38 3.3 46 46 WNW 7 11 29.97 1015 10 16 N/A
12:51 pm 12:51 Sunny 60 15.6 38 3.3 44 44 WSW 13 20 29.93 1014 10 16 N/A
1:51 pm 13:51 Sunny 61 16.1 37 2.8 41 41 WSW 9 15 29.92 1013 10 16 N/A
2:51 pm 14:51 Sunny 61 16.1 37 2.8 41 41 W 10 17 29.92 1013 10 16 N/A
3:51 pm 15:51 Sunny 61 16.1 35 1.7 38 38 W 10 17 29.94 1014 10 16 N/A
4:51 pm 16:51 Sunny 58 14.4 33 0.6 39 39 WNW 8 13 29.98 1015 10 16 N/A
5:51 pm 17:51 Clear 53 11.7 32 undefined 45 45 NW 7 11 30.00 1016 10 16 N/A
6:51 pm 18:51 Clear 51 10.6 31 -0.6 46 46 N 6 9 30.03 1017 10 16 N/A
7:51 pm 19:51 Clear 50 10 31 -0.6 48 48 N N/A 30.04 1017 10 16 N/A
8:51 pm 20:51 Clear 48 8.9 34 1.1 58 58 W 7 11 30.04 1017 10 16 N/A
9:51 pm 21:51 Clear 46 7.8 34 1.1 63 63 N 6 9 30.05 1018 10 16 N/A
10:51 pm 22:51 Clear 42 5.6 32 undefined 68 68 N N/A 30.07 1018 10 16 N/A
11:51 pm 23:51 Clear 43 6.1 32 undefined 65 65 SE 3 6 30.07 1018 10 16 N/A

Powered by AerisWeather